CDT,Max TemperatureF,Mean TemperatureF,Min TemperatureF,Max Dew PointF,MeanDew PointF,Min DewpointF,Max Humidity, Mean Humidity, Min Humidity, Max Sea Level PressureIn, Mean Sea Level PressureIn, Min Sea Level PressureIn, Max VisibilityMiles, Mean VisibilityMiles, Min VisibilityMiles, Max Wind SpeedMPH, Mean Wind SpeedMPH, Max Gust SpeedMPH,PrecipitationIn, CloudCover, Events, WindDirDegrees
2013-6-1,63,59,55,54,50,46,79,71,55,30.03,29.83,29.69,10,10,10,21,14,30,0.00,5,,304
2013-6-2,66,59,52,49,46,44,84,65,46,30.14,30.07,30.02,10,10,10,15,9,20,0.00,5,,18
2013-6-3,75,61,47,54,49,46,97,65,41,30.06,29.96,29.84,10,10,10,20,9,28,0.00,0,,156
2013-6-4,76,68,60,65,60,54,87,76,67,29.98,29.92,29.87,10,10,7,14,8,20,0.01,5,Rain-Thunderstorm,129
2013-6-5,70,63,56,66,57,50,100,79,52,30.04,30.00,29.96,10,8,2,18,7,25,0.47,6,Rain-Thunderstorm,9
2013-6-6,73,62,53,56,51,49,91,66,44,30.01,29.98,29.96,10,10,10,15,6,18,0.00,3,,340
2013-6-7,72,62,51,55,51,47,98,67,43,30.05,29.99,29.92,10,10,10,12,4,,0.00,2,,41
2013-6-8,75,64,54,66,56,50,100,76,53,29.92,29.81,29.70,10,9,1,24,10,33,0.67,4,Rain-Thunderstorm,171
2013-6-9,72,66,59,63,59,57,100,83,63,29.85,29.79,29.75,10,10,5,18,11,26,0.10,5,Rain,281
2013-6-10,80,68,55,66,61,55,100,82,56,29.92,29.86,29.80,10,8,2,13,6,17,0.00,1,,158
2013-6-11,90,78,68,65,63,59,87,57,38,29.83,29.76,29.70,10,10,10,31,13,38,0.00,0,Rain,182
2013-6-12,90,78,64,70,64,54,85,61,44,30.03,29.80,29.68,10,10,10,23,14,32,0.01,0,,303
2013-6-13,79,68,57,62,56,50,92,68,37,30.13,30.06,29.99,10,10,10,15,6,,0.01,1,Rain-Thunderstorm,14
2013-6-14,88,76,63,70,65,59,94,72,52,30.04,29.93,29.81,10,10,10,23,8,32,0.00,2,Thunderstorm,143
2013-6-15,84,75,67,71,65,58,100,77,46,30.01,29.91,29.86,10,10,7,20,9,26,0.14,3,Rain,181
2013-6-16,84,74,64,71,67,64,100,82,51,30.01,29.97,29.94,10,7,0,9,5,,0.00,4,Fog,93
2013-6-17,87,77,67,72,62,53,100,65,32,30.02,29.98,29.95,10,9,3,13,3,16,0.00,0,,16
2013-6-18,82,73,64,61,57,52,82,59,35,30.09,30.03,29.99,10,10,7,10,4,,0.01,2,Rain-Thunderstorm,44
2013-6-19,87,75,64,65,62,57,94,65,37,30.03,29.99,29.93,10,10,10,20,8,23,0.00,1,,168
2013-6-20,91,80,68,71,68,64,89,66,47,29.99,29.91,29.84,10,10,7,26,12,34,0.00,1,,169
2013-6-21,97,87,77,72,69,66,83,61,37,29.91,29.87,29.83,10,10,5,24,18,32,0.00,0,Thunderstorm,188
2013-6-22,93,84,74,70,67,62,83,59,40,29.99,29.89,29.82,10,10,7,28,14,37,0.00,1,Thunderstorm,171
2013-6-23,81,72,64,76,69,64,99,84,68,29.93,29.87,29.80,10,9,2,21,13,28,0.90,3,Rain-Thunderstorm,153
2013-6-24,82,76,71,74,71,66,100,86,68,29.98,29.85,29.77,10,9,2,21,7,28,0.62,3,Rain-Thunderstorm,166
2013-6-25,88,80,71,74,69,64,86,69,51,29.81,29.74,29.69,10,10,10,23,13,29,0.01,2,Rain-Thunderstorm,182
2013-6-26,90,82,73,75,68,59,98,65,37,29.91,29.81,29.68,10,10,5,14,7,18,0.00,0,,308
2013-6-27,79,74,69,72,69,59,98,85,47,30.02,29.95,29.91,10,10,1,29,4,34,0.45,2,Rain-Thunderstorm,327
2013-6-28,85,77,69,69,59,53,89,57,34,30.00,29.95,29.91,10,10,10,23,10,28,0.00,1,,333
2013-6-29,80,72,64,59,56,54,77,58,40,29.96,29.91,29.89,10,10,10,25,12,33,0.00,1,,340
2013-6-30,78,68,58,59,55,50,91,63,39,30.11,30.04,29.96,10,10,5,18,7,22,0.00,1,,14